This is the latest recevied weather packets stored in our database for station/object N4RCT. If no packets are shown the sender has not sent any weather packets the latest 10 day(s).
| Time | Temp. | Humidity | Pressure | Rain* | Wind** | Luminosity | Snow |
|---|---|---|---|---|---|---|---|
| 1778096462 | 25.56° C | 81% | 1011.5 hPa | 0 mm | - | 339 W/m² | - |
| 1778096160 | 25° C | 80% | 1011.5 hPa | 0 mm | - | 253 W/m² | - |
| 1778095857 | 25.56° C | 80% | 1011.8 hPa | 0 mm | - | 177 W/m² | - |
| 1778095553 | 25.56° C | 82% | 1011.9 hPa | 0 mm | - | 184 W/m² | - |
| 1778095249 | 25° C | 82% | 1011.9 hPa | 0 mm | - | 344 W/m² | - |
| 1778094946 | 25° C | 79% | 1012 hPa | 0 mm | - | 220 W/m² | - |
| 1778094642 | 25.56° C | 79% | 1012.1 hPa | 0 mm | - | 219 W/m² | - |
| 1778094339 | 25° C | 79% | 1012.1 hPa | 0 mm | - | 445 W/m² | - |
| 1778094036 | 24.44° C | 81% | 1012.2 hPa | 0 mm | - | 296 W/m² | - |
| 1778093733 | 24.44° C | 82% | 1012.3 hPa | 0 mm | - | 273 W/m² | - |
| 1778093430 | 24.44° C | 83% | 1012.4 hPa | 0 mm | - | 198 W/m² | - |
| 1778093128 | 24.44° C | 84% | 1012.4 hPa | 0 mm | - | 188 W/m² | - |
| 1778092824 | 24.44° C | 82% | 1012.3 hPa | 0 mm | - | 216 W/m² | - |
| 1778092520 | 24.44° C | 82% | 1012.8 hPa | 0 mm | - | 87 W/m² | - |
| 1778092217 | 24.44° C | 83% | 1012.7 hPa | 0 mm | - | 200 W/m² | - |
| 1778091915 | 23.89° C | 83% | 1013 hPa | 0 mm | - | 281 W/m² | - |
| 1778091611 | 23.89° C | 84% | 1013 hPa | 0 mm | - | 150 W/m² | - |
| 1778091309 | 23.33° C | 85% | 1012.9 hPa | 0 mm | - | 216 W/m² | - |
| 1778091006 | 22.78° C | 86% | 1012.9 hPa | 0 mm | - | 111 W/m² | - |
| 1778090703 | 22.78° C | 86% | 1013.2 hPa | 0 mm | - | 126 W/m² | - |
| 1778090399 | 22.78° C | 86% | 1013.5 hPa | 0 mm | - | 37 W/m² | - |
| 1778090096 | 23.33° C | 85% | 1013.2 hPa | 0 mm | - | 95 W/m² | - |
| 1778089792 | 23.33° C | 85% | 1013.5 hPa | 0 mm | - | 49 W/m² | - |
| 1778089491 | 23.33° C | 84% | 1013.3 hPa | 0 mm | - | 123 W/m² | - |
| 1778089187 | 23.33° C | 83% | 1013.3 hPa | 0 mm | - | 59 W/m² | - |
* Rain latest hour (hover to see other rain measurements)
** Current wind speed in m/s (hover to see current wind gust speed)